• In Hungary
  • List of Countries
  • For 7 days
  • Water Temperature
  • Satellite Maps
  • Weather Map
  • News
  • Weather Widgets
  • user-avatar
    Login

    Hourly Weather Backnang

    Today, 25 November, Saturday

    Time Temperature Precipitation Wind Pressure Humidity
    00:00 +10°C° 0.2 mm 3 mps 734 mmHg 91%
    01:00 +10°C° 0 mm 4 mps 733 mmHg 90%
    02:00 +10°C° 0.5 mm 3 mps 733 mmHg 92%
    03:00 +10°C° 0.5 mm 2 mps 732 mmHg 93%
    04:00 +9°C° 0.5 mm 2 mps 731 mmHg 95%
    05:00 +9°C° 2.3 mm 2 mps 731 mmHg 95%
    06:00 +9°C° 2.3 mm 2 mps 730 mmHg 95%
    07:00 +8°C° 2.3 mm 3 mps 730 mmHg 95%
    08:00 +8°C° 2.3 mm 3 mps 730 mmHg 95%
    09:00 +7°C° 2.3 mm 3 mps 730 mmHg 94%
    10:00 +7°C° 2.3 mm 3 mps 730 mmHg 94%
    11:00 +6°C° 1.1 mm 4 mps 731 mmHg 92%
    12:00 +6°C° 1.1 mm 4 mps 732 mmHg 90%
    13:00 +6°C° 1.1 mm 5 mps 732 mmHg 88%
    14:00 +6°C° 0.3 mm 5 mps 733 mmHg 86%
    15:00 +6°C° 0.3 mm 5 mps 733 mmHg 83%
    16:00 +6°C° 0.3 mm 5 mps 734 mmHg 81%
    17:00 +5°C° 0.2 mm 5 mps 734 mmHg 83%
    18:00 +3°C° 0.2 mm 5 mps 735 mmHg 84%
    19:00 +3°C° 0.2 mm 5 mps 736 mmHg 86%
    20:00 +3°C° 0.2 mm 4 mps 737 mmHg 86%
    21:00 +3°C° 0.2 mm 4 mps 737 mmHg 86%
    22:00 +3°C° 0.2 mm 4 mps 738 mmHg 86%
    23:00 +1°C° 0 mm 4 mps 739 mmHg 87%

    Tomorrow, 26 November, Sunday

    Time Temperature Precipitation Wind Pressure Humidity
    00:00 +1°C° 0 mm 4 mps 739 mmHg 89%
    01:00 +1°C° 0 mm 3 mps 740 mmHg 90%
    02:00 0°C° 0 mm 4 mps 740 mmHg 90%
    03:00 0°C° 0 mm 4 mps 741 mmHg 90%
    04:00 -1°C° 0 mm 4 mps 741 mmHg 90%
    05:00 -1°C° 0 mm 4 mps 741 mmHg 91%
    06:00 0°C° 0 mm 3 mps 742 mmHg 91%
    07:00 -1°C° 0 mm 3 mps 742 mmHg 92%
    08:00 0°C° 0 mm 3 mps 742 mmHg 89%
    09:00 -1°C° 0 mm 4 mps 743 mmHg 87%
    10:00 0°C° 0 mm 4 mps 743 mmHg 85%
    11:00 +1°C° 0 mm 4 mps 743 mmHg 82%
    12:00 +1°C° 0 mm 4 mps 743 mmHg 79%
    13:00 +1°C° 0 mm 4 mps 743 mmHg 77%
    14:00 +1°C° 0 mm 4 mps 743 mmHg 77%
    15:00 +1°C° 0 mm 4 mps 743 mmHg 78%
    16:00 +2°C° 0 mm 3 mps 743 mmHg 79%
    17:00 +1°C° 0 mm 3 mps 744 mmHg 81%
    18:00 +1°C° 0 mm 3 mps 744 mmHg 83%
    19:00 0°C° 0 mm 3 mps 744 mmHg 86%
    20:00 0°C° 0 mm 3 mps 745 mmHg 87%
    21:00 0°C° 0 mm 3 mps 745 mmHg 88%
    22:00 0°C° 0 mm 3 mps 745 mmHg 90%
    23:00 0°C° 0 mm 3 mps 745 mmHg 90%

    Day after tomorrow, 27 November, Monday

    Time Temperature Precipitation Wind Pressure Humidity
    00:00 -1°C° 0 mm 3 mps 745 mmHg 91%
    01:00 -1°C° 0 mm 3 mps 745 mmHg 92%
    02:00 -1°C° 0 mm 3 mps 745 mmHg 92%
    03:00 -1°C° 0 mm 3 mps 745 mmHg 92%
    04:00 -1°C° 0 mm 3 mps 745 mmHg 92%
    05:00 -1°C° 0 mm 3 mps 745 mmHg 92%
    06:00 -1°C° 0 mm 3 mps 746 mmHg 91%
    07:00 -1°C° 0 mm 3 mps 746 mmHg 91%
    08:00 0°C° 0 mm 3 mps 746 mmHg 87%
    09:00 -1°C° 0 mm 4 mps 746 mmHg 83%
    10:00 0°C° 0 mm 4 mps 746 mmHg 78%
    11:00 +1°C° 0 mm 4 mps 745 mmHg 74%
    12:00 +3°C° 0 mm 4 mps 745 mmHg 70%
    13:00 +3°C° 0 mm 4 mps 744 mmHg 65%
    14:00 +3°C° 0 mm 4 mps 744 mmHg 68%
    15:00 +2°C° 0 mm 3 mps 743 mmHg 70%
    16:00 +2°C° 0 mm 3 mps 742 mmHg 73%
    17:00 +1°C° 0 mm 3 mps 742 mmHg 75%
    18:00 +1°C° 0 mm 3 mps 742 mmHg 77%
    19:00 0°C° 0 mm 3 mps 741 mmHg 79%
    20:00 0°C° 0 mm 3 mps 741 mmHg 80%
    21:00 0°C° 0 mm 3 mps 740 mmHg 80%
    22:00 0°C° 0 mm 3 mps 740 mmHg 81%
    23:00 0°C° 0 mm 3 mps 739 mmHg 80%

    28 November, Tuesday

    Time Temperature Precipitation Wind Pressure Humidity
    00:00 0°C° 0 mm 3 mps 738 mmHg 80%
    01:00 0°C° 0 mm 3 mps 737 mmHg 80%
    02:00 0°C° 0 mm 3 mps 737 mmHg 79%
    03:00 0°C° 0 mm 3 mps 736 mmHg 77%
    04:00 0°C° 0 mm 3 mps 735 mmHg 76%
    05:00 +1°C° 0 mm 3 mps 735 mmHg 73%
    06:00 0°C° 0 mm 4 mps 734 mmHg 70%
    07:00 +1°C° 0 mm 4 mps 733 mmHg 67%
    08:00 +1°C° 0.1 mm 4 mps 733 mmHg 65%
    09:00 +2°C° 0.1 mm 5 mps 733 mmHg 63%
    10:00 +3°C° 0.1 mm 5 mps 732 mmHg 61%
    11:00 +3°C° 0.2 mm 6 mps 732 mmHg 64%
    12:00 +3°C° 0.2 mm 6 mps 731 mmHg 67%
    13:00 +3°C° 0.2 mm 6 mps 731 mmHg 71%
    14:00 +3°C° 0.2 mm 6 mps 731 mmHg 74%
    15:00 +2°C° 0.2 mm 5 mps 731 mmHg 78%
    16:00 +3°C° 0.2 mm 4 mps 730 mmHg 82%
    17:00 +1°C° 0.1 mm 4 mps 731 mmHg 84%
    18:00 +2°C° 0.1 mm 3 mps 731 mmHg 87%
    19:00 +1°C° 0.1 mm 3 mps 731 mmHg 90%
    20:00 +1°C° 0 mm 3 mps 731 mmHg 90%
    21:00 +1°C° 0 mm 3 mps 730 mmHg 90%
    22:00 0°C° 0 mm 3 mps 730 mmHg 91%
    23:00 0°C° 0 mm 3 mps 730 mmHg 91%

    29 November, Wednesday

    Time Temperature Precipitation Wind Pressure Humidity
    00:00 +1°C° 0 mm 2 mps 730 mmHg 91%
    01:00 +1°C° 0 mm 2 mps 730 mmHg 91%
    02:00 +1°C° 0 mm 2 mps 730 mmHg 91%
    03:00 +1°C° 0 mm 2 mps 730 mmHg 90%
    04:00 +1°C° 0 mm 2 mps 730 mmHg 90%
    05:00 +1°C° 0 mm 2 mps 730 mmHg 90%
    06:00 +1°C° 0 mm 2 mps 730 mmHg 90%
    07:00 +1°C° 0 mm 2 mps 730 mmHg 90%
    08:00 0°C° 0 mm 3 mps 730 mmHg 87%
    09:00 +1°C° 0 mm 3 mps 730 mmHg 84%
    10:00 +1°C° 0 mm 3 mps 730 mmHg 81%
    11:00 +1°C° 0 mm 4 mps 729 mmHg 79%
    12:00 +1°C° 0 mm 4 mps 729 mmHg 77%
    13:00 +3°C° 0 mm 4 mps 729 mmHg 74%
    14:00 +3°C° 0 mm 4 mps 729 mmHg 76%
    15:00 +1°C° 0 mm 4 mps 729 mmHg 79%
    16:00 +2°C° 0 mm 3 mps 729 mmHg 81%
    17:00 +1°C° 0 mm 3 mps 729 mmHg 83%
    18:00 0°C° 0 mm 3 mps 729 mmHg 85%
    19:00 -1°C° 0 mm 3 mps 729 mmHg 87%
    20:00 -1°C° 0 mm 4 mps 729 mmHg 86%
    21:00 -1°C° 0 mm 4 mps 729 mmHg 86%
    22:00 -1°C° 0 mm 4 mps 730 mmHg 85%
    23:00 -1°C° 0 mm 4 mps 730 mmHg 86%

    30 November, Thursday

    Time Temperature Precipitation Wind Pressure Humidity
    00:00 0°C° 0 mm 3 mps 730 mmHg 87%
    01:00 0°C° 0 mm 3 mps 730 mmHg 89%
    02:00 0°C° 0 mm 3 mps 730 mmHg 89%
    03:00 0°C° 0 mm 3 mps 729 mmHg 90%
    04:00 0°C° 0 mm 3 mps 729 mmHg 91%
    05:00 0°C° 0 mm 3 mps 729 mmHg 91%
    06:00 0°C° 0 mm 3 mps 729 mmHg 90%
    07:00 +1°C° 0 mm 2 mps 729 mmHg 90%
    08:00 0°C° 0.2 mm 3 mps 729 mmHg 88%
    09:00 0°C° 0.2 mm 3 mps 729 mmHg 87%
    10:00 +1°C° 0.2 mm 3 mps 729 mmHg 86%
    11:00 +1°C° 0.2 mm 3 mps 729 mmHg 84%
    12:00 0°C° 0.2 mm 4 mps 729 mmHg 82%
    13:00 0°C° 0.2 mm 4 mps 729 mmHg 80%
    14:00 +1°C° 0.1 mm 3 mps 729 mmHg 80%
    15:00 0°C° 0.1 mm 3 mps 729 mmHg 80%
    16:00 0°C° 0.1 mm 3 mps 729 mmHg 80%
    17:00 -1°C° 0 mm 2 mps 729 mmHg 83%
    18:00 -1°C° 0 mm 2 mps 729 mmHg 85%
    19:00 -2°C° 0 mm 2 mps 729 mmHg 87%
    20:00 -2°C° 0 mm 2 mps 729 mmHg 87%
    21:00 -2°C° 0 mm 2 mps 729 mmHg 87%
    22:00 -2°C° 0 mm 2 mps 729 mmHg 87%
    23:00 -2°C° 0.1 mm 2 mps 729 mmHg 88%
    Show more